Change the Weather History Date:

Tuesday, January 3, 2012

  Actual Average Record
Temperature  
Mean Temperature 19 °F -  
Max Temperature 30 °F 22 °F 51 °F (1931)
Min Temperature 8 °F 2 °F -27 °F (1919)
Degree Days  
Heating Degree Days 46    
Moisture  
Dew Point 12 °F    
Average Humidity 69    
Maximum Humidity 85    
Minimum Humidity 51    
Precipitation  
Precipitation 0.00 in - - ()
Sea Level Pressure  
Sea Level Pressure 30.12 in    
Wind  
Wind Speed 8 mph (South)    
Max Wind Speed 23 mph    
Max Gust Speed 32 mph    
Visibility 10 miles    
Events      
Averages and records for this station are not official NWS values.
T = Trace of Precipitation, MM = Missing Value Source: NWS Daily Summary

Daily Weather History Graph

Daily Weather History Graph

Search for Another Location

Airport or City:

Trip Planner

Search our weather history database for the weather conditions in past years. The results will help you decide how hot, cold, wet, or windy it might be!

Date:

Astronomy

Jan. 03, 2012 Rise Set
Actual Time 7:49 AM CST 4:48 PM CST
Civil Twilight 7:16 AM CST 5:20 PM CST
Nautical Twilight 6:40 AM CST 5:57 PM CST
Astronomical Twilight 6:04 AM CST 6:32 PM CST
Moon 12:39 PM CST (1/3) 2:36 AM CST (1/3)
Length of Visible Light 10h 04m
Length of Day
8h 58m
Waxing Gibbous, 73% of the Moon is Illuminated
Jan 3
Waxing Gibbous
Jan 9
Full
Jan 16
Last Quarter
Jan 23
New
Jan 30
First Quarter

Hourly Weather History & Observations

Time (CST) Temp. Windchill Dew Point Humidity Pressure Visibility Wind Dir Wind Speed Gust Speed Precip Events Conditions
12:16 AM 12.2 °F - 8.6 °F 85% 30.45 in 10.0 mi Calm Calm - N/A   Clear
12:37 AM 12.2 °F - 8.6 °F 85% 30.44 in 10.0 mi Calm Calm - N/A   Clear
12:57 AM 12.2 °F 6.1 °F 8.6 °F 85% 30.43 in 10.0 mi SSW 3.5 mph - N/A   Clear
1:17 AM 12.2 °F - 8.6 °F 85% 30.43 in 10.0 mi Calm Calm - N/A   Clear
1:37 AM 12.2 °F 6.1 °F 8.6 °F 85% 30.42 in 10.0 mi South 3.5 mph - N/A   Clear
1:57 AM 10.4 °F - 5.0 °F 79% 30.41 in 10.0 mi Calm Calm - N/A   Clear
2:17 AM 10.4 °F 2.2 °F 5.0 °F 79% 30.40 in 10.0 mi South 4.6 mph - N/A   Clear
2:37 AM 10.4 °F 4.0 °F 5.0 °F 79% 30.39 in 10.0 mi SSE 3.5 mph - N/A   Clear
3:17 AM 8.6 °F -2.6 °F 3.2 °F 79% 30.38 in 10.0 mi South 6.9 mph - N/A   Clear
3:37 AM 8.6 °F 0.1 °F 3.2 °F 79% 30.37 in 10.0 mi SSE 4.6 mph - N/A   Clear
4:17 AM 8.6 °F -1.3 °F 3.2 °F 79% 30.34 in 10.0 mi SE 5.8 mph - N/A   Clear
4:37 AM 10.4 °F 2.2 °F 5.0 °F 79% 30.32 in 10.0 mi SSE 4.6 mph - N/A   Clear
4:57 AM 10.4 °F 4.0 °F 5.0 °F 79% 30.31 in 10.0 mi SE 3.5 mph - N/A   Clear
5:17 AM 10.4 °F -1.5 °F 5.0 °F 79% 30.29 in 10.0 mi SE 8.1 mph - N/A   Clear
5:37 AM 10.4 °F 0.8 °F 5.0 °F 79% 30.29 in 10.0 mi SSE 5.8 mph - N/A   Clear
5:57 AM 12.2 °F 2.9 °F 6.8 °F 79% 30.28 in 10.0 mi SSE 5.8 mph - N/A   Clear
6:17 AM 12.2 °F -1.0 °F 6.8 °F 79% 30.26 in 10.0 mi SSE 10.4 mph - N/A   Clear
6:57 AM 14.0 °F 2.9 °F 5.0 °F 67% 30.25 in 10.0 mi SSE 8.1 mph - N/A   Clear
7:17 AM 12.2 °F -1.0 °F 5.0 °F 73% 30.24 in 10.0 mi SSE 10.4 mph - N/A   Clear
7:37 AM 14.0 °F 0.5 °F 5.0 °F 67% 30.23 in 10.0 mi SSE 11.5 mph - N/A   Clear
7:57 AM 14.0 °F -0.2 °F 5.0 °F 67% 30.22 in 10.0 mi SSE 12.7 mph - N/A   Clear
8:17 AM 15.8 °F 2.1 °F 6.8 °F 68% 30.22 in 10.0 mi SSE 12.7 mph 17.3 mph N/A   Clear
8:37 AM 15.8 °F 0.9 °F 5.0 °F 62% 30.20 in 10.0 mi SSE 15.0 mph 18.4 mph N/A   Clear
8:57 AM 17.6 °F 3.2 °F 8.6 °F 68% 30.20 in 10.0 mi SSE 15.0 mph - N/A   Clear
9:17 AM 17.6 °F 1.3 °F 8.6 °F 68% 30.19 in 10.0 mi SSE 19.6 mph 24.2 mph N/A   Clear
9:37 AM 19.4 °F 4.1 °F 8.6 °F 63% 30.18 in 10.0 mi SSE 18.4 mph - N/A   Clear
9:57 AM 21.2 °F 6.4 °F 8.6 °F 58% 30.16 in 10.0 mi SSE 18.4 mph 26.5 mph N/A   Clear
10:17 AM 21.2 °F 6.0 °F 8.6 °F 58% 30.13 in 10.0 mi SSE 19.6 mph 28.8 mph N/A   Clear
10:38 AM 23.0 °F 7.2 °F 10.4 °F 59% 30.11 in 10.0 mi SSE 23.0 mph 29.9 mph N/A   Clear
10:57 AM 23.0 °F 7.6 °F 10.4 °F 59% 30.09 in 10.0 mi SSE 21.9 mph 32.2 mph N/A   Clear
11:17 AM 23.0 °F 7.2 °F 10.4 °F 59% 30.07 in 10.0 mi SSE 23.0 mph 29.9 mph N/A   Clear
11:37 AM 24.8 °F 10.7 °F 12.2 °F 59% 30.04 in 10.0 mi SSE 19.6 mph 27.6 mph N/A   Clear
11:57 AM 26.6 °F 14.7 °F 12.2 °F 55% 30.03 in 10.0 mi SSE 15.0 mph 19.6 mph N/A   Clear
12:17 PM 26.6 °F 15.2 °F 12.2 °F 55% 30.03 in 10.0 mi SSE 13.8 mph 20.7 mph N/A   Clear
12:57 PM 30.2 °F 18.1 °F 14.0 °F 51% 30.01 in 10.0 mi South 18.4 mph 25.3 mph N/A   Clear
1:17 PM 28.4 °F 16.2 °F 14.0 °F 55% 29.99 in 10.0 mi South 17.3 mph 24.2 mph N/A   Clear
1:37 PM 28.4 °F 16.2 °F 17.6 °F 64% 29.97 in 10.0 mi South 17.3 mph 23.0 mph N/A   Clear
1:57 PM 30.2 °F 18.1 °F 17.6 °F 60% 29.96 in 10.0 mi South 18.4 mph 23.0 mph N/A   Clear
2:17 PM 30.2 °F 19.3 °F 19.4 °F 64% 29.95 in 10.0 mi South 15.0 mph 25.3 mph N/A   Clear
2:57 PM 30.2 °F 19.8 °F 19.4 °F 64% 29.95 in 10.0 mi South 13.8 mph 18.4 mph N/A   Clear
3:18 PM 30.2 °F 19.8 °F 19.4 °F 64% 29.94 in 10.0 mi South 13.8 mph - N/A   Clear
3:37 PM 30.2 °F 19.3 °F 19.4 °F 64% 29.93 in 10.0 mi South 15.0 mph 18.4 mph N/A   Clear
3:58 PM 30.2 °F 20.2 °F 19.4 °F 64% 29.94 in 10.0 mi South 12.7 mph - N/A   Clear
4:17 PM 30.2 °F 21.3 °F 19.4 °F 64% 29.95 in 10.0 mi South 10.4 mph - N/A   Clear
4:37 PM 28.4 °F 18.0 °F 17.6 °F 64% 29.93 in 10.0 mi South 12.7 mph - N/A   Clear
4:57 PM 28.4 °F 18.5 °F 17.6 °F 64% 29.93 in 10.0 mi South 11.5 mph - N/A   Clear
5:17 PM 28.4 °F 18.0 °F 17.6 °F 64% 29.92 in 10.0 mi South 12.7 mph 18.4 mph N/A   Clear
5:37 PM 28.4 °F 17.5 °F 19.4 °F 69% 29.91 in 10.0 mi South 13.8 mph - N/A   Clear
5:57 PM 28.4 °F 17.0 °F 19.4 °F 69% 29.91 in 10.0 mi South 15.0 mph - N/A   Clear
6:17 PM 26.6 °F 18.2 °F 17.6 °F 69% 29.92 in 10.0 mi SSW 8.1 mph - N/A   Clear
6:38 PM 26.6 °F 16.8 °F 17.6 °F 69% 29.91 in 10.0 mi South 10.4 mph - N/A   Clear
6:57 PM 26.6 °F 15.7 °F 17.6 °F 69% 29.90 in 10.0 mi South 12.7 mph 17.3 mph N/A   Clear
7:17 PM 26.6 °F 16.8 °F 17.6 °F 69% 29.91 in 10.0 mi South 10.4 mph - N/A   Clear
7:37 PM 24.8 °F 15.3 °F 17.6 °F 74% 29.91 in 10.0 mi SSW 9.2 mph - N/A   Clear
7:57 PM 26.6 °F 16.8 °F 17.6 °F 69% 29.88 in 10.0 mi South 10.4 mph - N/A   Clear
8:17 PM 26.6 °F 17.5 °F 17.6 °F 69% 29.89 in 10.0 mi SW 9.2 mph - N/A   Clear
8:37 PM 26.6 °F 19.1 °F 17.6 °F 69% 29.91 in 10.0 mi SSW 6.9 mph - N/A   Clear
8:57 PM 24.8 °F 16.9 °F 17.6 °F 74% 29.90 in 10.0 mi South 6.9 mph - N/A   Clear
9:17 PM 26.6 °F 18.2 °F 17.6 °F 69% 29.88 in 10.0 mi South 8.1 mph - N/A   Clear
9:37 PM 26.6 °F 18.2 °F 17.6 °F 69% 29.88 in 10.0 mi South 8.1 mph - N/A   Clear
9:57 PM 23.0 °F 15.8 °F 17.6 °F 80% 29.88 in 10.0 mi SSW 5.8 mph - N/A   Clear
10:17 PM 24.8 °F 16.9 °F 17.6 °F 74% 29.88 in 10.0 mi South 6.9 mph - N/A   Clear
10:37 PM 24.8 °F 19.1 °F 17.6 °F 74% 29.89 in 10.0 mi SSW 4.6 mph - N/A   Clear
10:57 PM 23.0 °F 17.0 °F 17.6 °F 80% 29.89 in 10.0 mi SSW 4.6 mph - N/A   Clear
11:17 PM 24.8 °F 19.1 °F 17.6 °F 74% 29.89 in 10.0 mi SW 4.6 mph - N/A   Clear
11:37 PM 23.0 °F 15.8 °F 17.6 °F 80% 29.89 in 10.0 mi SSW 5.8 mph - N/A   Clear
11:57 PM 23.0 °F 17.0 °F 17.6 °F 80% 29.90 in 10.0 mi SW 4.6 mph - N/A   Clear